OBJECT G, 60209

Orbit data source: Space-Track

You're viewing an Uncataloged Satellite

Recently launched and/or uncataloged satellites may have evolving metadata. Metadata may include but not limited to: Owner, Maufacturer, Bus, Motor, and Mission.

OBJECT G, 60209 is an American satellite in SSO that was launched on Thu, 04 Jul 2024 UTC via an FIREFLY ALPHA launch vehicle from the Air Force Western Test Range (AFWTR). Unknown objects in Earth's orbit typically refer to objects detected orbiting the Earth but have not yet been identified or cataloged. These objects could be anything from previously untracked satellites, spent rocket stages, debris from satellite collisions, or even natural meteoroids temporarily captured by Earth's gravity.

Loading next visibility...
Identifier
60209, 2024-125G
Orbit
SSO
Last TLE update
18 hours ago
Origin
Manufacturer
UME
Mission
Operational spacecraft
Bus & Motor
CUBESAT 3U, Unknown motor
Mass
3 kg wet, 3 kg dry
Launch date (UTC)
2024-07-04 (10 months ago)
Launch vehicle
FIREFLY ALPHA
Launch site
Air Force Western Test Range (AFWTR)
Object type
Unknown
Shape & HBR
Unknown
Radar Cross Section
Small (<0.1 m²)

Expand to show TLE details & history

TLE from 18 hours ago
0 OBJECT G
1 60209U 24125G   25128.51264308  .00018369  00000-0  54044-3 0  9995
2 60209  97.2838 340.5108 0017650 250.0506 109.8837 15.34974489 47038
Epoch: 2025-05-08T12:18Z
Definitive object data (Epoch: 2025-05-08T12:18:12.362Z)
Latitude
0.00004°
Longitude
-70.62278°
Altitude
468.236 km
Speed
7.63 km/s
True Right ascension
22h 42m 02s
True Declination
0° 00' 00"
Sunlit
Object was in daylight at TLE epoch
Visualization TLE readout
Latitude
65.87315°
Longitude
-86.38963°
Altitude
484.398 km
Speed
7.623 km/s
Apparent Right ascension
00h 26m 43s
Apparent Declination
18° 09' 18"
Sunlit
Object is in daylight
Visualization observer readout
Local Sidereal Time
13:56:58
Azimuth
24.446° NE
Elevation
-28.234°
Doppler factor
1
Orbital elements
Apogee altitude
470.003 km
Perigee altitude
445.871 km
Semi-major axis
6,836.074 km
Eccentricity
0.001765
Inclination
97.2838°
RAAN
340.5108°
Arg. of periapsis
250.0506°
True anomaly
110.07375°
Mean anomaly
109.8837°
Eccentric anomaly
109.97874°
Mean motion
3.84002 °/min
BSTAR
0.00054044
Orbital period
93.75 mins
Loading maneuver chart data...
Loading SW <> Apogee altitude chart data...
Loading historical data...
Loading historical data...
Loading historical data...
Loading historical data...
Loading historical data...
Loading historical data...
Loading historical data...

OBJECT G Visibility forecast

Observer location: undefined°, undefined°

Span
Click to sort rows by Start time (UTC) header in descending order
Start Az.
Max El. time (UTC)
Max El. Az.
Max El.
End time (UTC)
End Az.
4 mins2025-05-09 13:29:15.134Z116.216° SE2025-05-09 13:31:15.134Z70.011° E22.587°2025-05-09 13:33:15.134Z24.978° NE
4 mins2025-05-10 02:26:15.134Z51.246° ENE2025-05-10 02:28:15.134Z109.437° ESE25.846°2025-05-10 02:30:15.134Z153.184° SSE
|